www.pogodaiklimat.ru

Погода и климат >> Архив погоды >> Словакия >> Ясловске Богунице


ПОГОДА в Ясловске Богунице

  • Прогноз погоды в Ясловске Богунице
  • Монитор погоды в Ясловске Богунице

АРХИВ ПОГОДЫ в Ясловске Богунице

Время (UTC), дата Ветер
(напр.,м/с)
 
Видим.   Явления Облачность Т
(С)
Тd
(С)
f
(%)
Тe
(С)
Тes
(С)
Комфортность P
(гПа)
Po
(гПа)
Тmin
(С)
Tmax
(С)
R
(мм)
R24
(мм)
S
(см)
01 11.09 С 3 н/о н/о +11.3 +10.4 94 +9 +9 1022.7 1001.3
02 11.09 С 2 н/о н/о +10.8 +9.9 94 +9 +9 1023.0 1001.5
03 11.09 С 3 н/о н/о +10.5 +9.6 94 +8 +8 1023.0 1001.5
04 11.09 С 3 н/о н/о +11.2 +10.0 92 +9 +9 1023.2 1001.7
05 11.09 С 4 н/о н/о +11.3 +9.9 91 +9 +9 1023.4 1001.9
06 11.09 С 4 н/о н/о +13.0 +10.5 85 +11 +11 1023.8 1002.5 +10.5
07 11.09 С 3 н/о н/о +15.2 +11.8 80 +15 +15 1024.3 1003.1
08 11.09 СВ 2 н/о н/о +18.0 +12.9 72 +19 +19 1024.4 1003.4
09 11.09 н/о н/о +20.3 +12.3 60 1024.3 1003.5
10 11.09 н/о н/о +21.4 +11.4 53 1024.0 1003.3
11 11.09 н/о н/о +22.1 +11.5 51 1023.9 1003.2
12 11.09 ЮВ 2 н/о н/о +22.8 +11.9 50 +25 +25 комфорт 1023.4 1002.8
13 11.09 Ю 3 н/о н/о +23.1 +12.1 50 +26 +26 жарко 1023.2 1002.6
14 11.09 н/о н/о +23.4 +10.8 45 1023.0 1002.4
15 11.09 нст 1 н/о н/о +24.1 +10.4 42 +25 +25 комфорт 1022.8 1002.3
16 11.09 н/о н/о +23.4 +9.8 42 1022.9 1002.3
17 11.09 штиль 0 н/о н/о +19.5 +14.8 74 +21 +21 комфорт 1023.4 1002.6
18 11.09 СЗ 2 н/о н/о +15.9 +12.3 79 +16 +16 1024.1 1003.0 +24.2 0.4
19 11.09 СЗ 2 н/о н/о +14.3 +12.3 88 +14 +14 1024.8 1003.6
20 11.09 С 3 н/о н/о +13.1 +11.3 89 +12 +12 1025.2 1003.9
21 11.09 С 2 н/о н/о +11.8 +10.4 91 +11 +11 1025.6 1004.1
22 11.09 СЗ 2 н/о н/о +10.8 +9.4 91 +9 +9 1026.1 1004.6
23 11.09 С 2 н/о н/о +10.1 +9.2 94 +8 +8 1026.5 1004.9
00 12.09 С 3 н/о н/о +10.6 +9.4 92 +8 +8 1026.5 1004.9 0.3
01 12.09 С 3 н/о н/о +10.1 +9.2 94 +8 +8 1026.7 1005.1
02 12.09 С 3 н/о н/о +9.4 +8.5 94 +7 +7 1027.0 1005.3
03 12.09 С 3 н/о н/о +9.6 +8.7 94 +7 +7 1027.2 1005.5
04 12.09 С 3 н/о н/о +9.6 +8.8 95 +7 +7 1027.8 1006.1
05 12.09 С 3 н/о н/о +10.4 +9.5 94 +8 +8 1028.3 1006.7
06 12.09 С 2 н/о н/о +12.5 +10.9 90 +12 +12 1028.7 1007.2 +9.4 0.3
07 12.09 н/о н/о +15.4 +12.5 83 1028.9 1007.7
08 12.09 СЗ 2 н/о н/о +18.8 +13.4 71 +20 +20 1029.4 1008.4
09 12.09 СЗ 4 н/о н/о +20.4 +12.9 62 +23 +23 комфорт 1029.6 1008.7
10 12.09 СЗ 4 н/о н/о +22.1 +12.1 53 +24 +24 комфорт 1029.5 1008.7
11 12.09 СЗ 4 н/о н/о +22.9 +11.3 48 +25 +25 комфорт 1029.3 1008.6
12 12.09 З 5 н/о н/о +23.3 +9.3 41 +25 +25 комфорт 1029.0 1008.3
13 12.09 З 4 н/о н/о +23.9 +10.9 44 +25 +25 комфорт 1028.8 1008.1
14 12.09 СЗ 4 н/о н/о +23.9 +10.9 44 +25 +25 комфорт 1028.5 1007.9
15 12.09 З 4 н/о н/о +23.5 +10.6 44 +25 +25 комфорт 1028.3 1007.6
16 12.09 СЗ 4 н/о н/о +22.6 +10.8 47 +25 +25 комфорт 1028.3 1007.6
17 12.09 СЗ 3 н/о н/о +19.7 +12.5 63 +22 +22 комфорт 1028.7 1007.8
18 12.09 СЗ 3 н/о н/о +17.7 +12.4 71 +18 +18 1029.3 1008.2 +24.3
19 12.09 З 3 н/о н/о +16.6 +12.8 78 +16 +16 1029.6 1008.4
20 12.09 СЗ 3 н/о н/о +15.5 +12.6 83 +15 +15 1030.1 1008.8
21 12.09 н/о н/о +14.8 +12.1 84 1030.2 1008.9
22 12.09 З 1 н/о н/о +13.4 +11.8 90 +14 +14 1030.5 1009.1
23 12.09 СЗ 1 н/о н/о +12.8 +11.2 90 +13 +13 1030.6 1009.1
00 13.09 С 2 н/о н/о +12.8 +11.7 93 +12 +12 1030.3 1008.8
01 13.09 С 2 н/о н/о +12.2 +11.1 93 +11 +11 1030.4 1008.9
02 13.09 С 3 н/о н/о +11.9 +11.0 94 +10 +10 1030.3 1008.8
03 13.09 С 3 н/о н/о +11.8 +11.0 95 +10 +10 1030.2 1008.7
04 13.09 С 3 н/о н/о +11.7 +10.6 93 +10 +10 1030.5 1008.9
05 13.09 С 3 н/о н/о +11.5 +10.7 95 +10 +10 1030.8 1009.2
06 13.09 С 2 н/о н/о +14.2 +12.1 87 +14 +14 1030.5 1009.1 +11.2
07 13.09 н/о н/о +16.5 +13.0 80 1030.5 1009.3
08 13.09 н/о н/о +19.5 +13.9 70 1030.3 1009.3
09 13.09 н/о н/о +21.2 +14.8 67 1029.9 1009.1
10 13.09 н/о н/о +23.5 +15.6 61 1029.0 1008.4
11 13.09 З 3 н/о н/о +24.1 +14.2 54 +27 +27 жарко 1028.8 1008.2
12 13.09 З 3 н/о н/о +24.3 +13.2 50 +26 +26 жарко 1028.6 1008.0
13 13.09 З 3 н/о н/о +24.4 +13.6 51 +27 +27 жарко 1028.3 1007.7
14 13.09 З 4 н/о н/о +25.1 +14.3 51 +28 +28 жарко 1027.8 1007.3
15 13.09 СЗ 4 н/о н/о +23.6 +14.1 55 +26 +26 жарко 1027.8 1007.2
16 13.09 З 3 н/о н/о +23.1 +13.3 54 +26 +26 жарко 1027.9 1007.2
17 13.09 СЗ 2 н/о н/о +21.8 +13.4 59 +25 +25 комфорт 1028.0 1007.2
18 13.09 СЗ 3 н/о н/о +20.7 +13.9 65 +24 +24 комфорт 1028.3 1007.5 +25.2
19 13.09 СЗ 3 н/о н/о +20.5 +14.2 67 +23 +23 комфорт 1028.6 1007.7
20 13.09 С 2 н/о н/о +18.4 +14.1 76 +19 +19 1028.9 1007.9
21 13.09 С 4 н/о н/о +18.7 +13.6 72 +19 +19 1029.2 1008.2
22 13.09 С 2 н/о н/о +16.6 +13.3 81 +17 +17 1029.7 1008.5
23 13.09 С 2 н/о н/о +15.6 +12.9 84 +15 +15 1029.7 1008.5
00 14.09 СЗ 3 н/о н/о +15.8 +13.1 84 +15 +15 1029.9 1008.7
01 14.09 СЗ 4 н/о н/о +15.7 +13.4 86 +15 +15 1029.8 1008.6
02 14.09 С 2 н/о н/о +14.7 +12.7 88 +14 +14 1029.9 1008.6
03 14.09 С 2 н/о н/о +14.1 +12.0 87 +14 +14 1030.2 1008.8
04 14.09 С 3 н/о н/о +14.7 +11.7 82 +14 +14 1030.4 1009.1
05 14.09 С 4 н/о н/о +14.9 +11.5 80 +14 +14 1030.7 1009.4
06 14.09 С 4 н/о н/о +16.3 +11.9 75 +16 +16 1031.1 1009.9 +14.1
07 14.09 С 5 н/о н/о +17.9 +11.9 68 +18 +18 1031.6 1010.5
08 14.09 С 5 н/о н/о +18.7 +11.5 63 +19 +19 1031.8 1010.7
09 14.09 С 3 н/о н/о +20.1 +11.6 58 +22 +22 комфорт 1031.5 1010.5
10 14.09 СЗ 3 н/о н/о +20.7 +9.9 50 +23 +23 комфорт 1031.0 1010.1
11 14.09 СЗ 4 н/о н/о +21.1 +8.7 45 +22 +22 комфорт 1030.8 1009.9
12 14.09 С 4 н/о н/о +21.4 +6.5 38 +22 +22 комфорт 1030.3 1009.4
13 14.09 С 4 н/о н/о +21.5 +5.8 36 +22 +22 комфорт 1030.0 1009.1
14 14.09 СЗ 6 н/о н/о +20.9 +6.8 40 +22 +22 комфорт 1029.6 1008.7
15 14.09 СЗ 6 н/о н/о +20.1 +6.5 41 +21 +21 комфорт 1029.2 1008.2
16 14.09 СЗ 6 н/о н/о +18.9 +6.7 45 +19 +19 1028.9 1007.9
17 14.09 СЗ 3 н/о н/о +16.4 +7.4 55 +16 +16 1029.2 1008.0
18 14.09 СЗ 2 н/о н/о +13.9 +7.7 66 +13 +13 1029.7 1008.3 +21.6
19 14.09 С 2 н/о н/о +12.6 +7.5 71 +12 +12 1030.1 1008.6
20 14.09 С 2 н/о н/о +10.9 +7.4 79 +10 +10 1030.4 1008.8
21 14.09 н/о н/о +9.3 +6.9 85 1030.7 1008.9
22 14.09 С 2 н/о н/о +9.9 +6.6 80 +8 +8 1030.8 1009.1
23 14.09 н/о н/о +8.3 +6.3 87 1030.6 1008.7
00 15.09 нст 2 н/о н/о +8.0 +6.0 87 +6 +6 1030.2 1008.3
01 15.09 С 3 н/о н/о +8.5 +6.5 87 +6 +6 1029.5 1007.7
02 15.09 С 2 н/о н/о +7.8 +5.8 87 +6 +6 1029.4 1007.5
03 15.09 С 2 н/о н/о +6.6 +5.2 91 +4 +4 1029.4 1007.4
04 15.09 С 2 н/о н/о +6.4 +5.2 92 +4 +4 1029.3 1007.3
05 15.09 С 3 н/о н/о +6.7 +5.6 93 +3 +3 1029.2 1007.3
06 15.09 С 2 н/о н/о +9.4 +7.2 86 +8 +8 1029.1 1007.4 +6.3
07 15.09 н/о н/о +12.6 +8.5 76 1028.9 1007.4
08 15.09 н/о н/о +15.3 +9.0 66 1028.0 1006.8
09 15.09 н/о н/о +17.2 +9.1 59 1027.6 1006.5
10 15.09 н/о н/о +19.2 +9.4 53 1026.8 1005.9
11 15.09 н/о н/о +20.0 +9.9 52 1026.0 1005.1
12 15.09 н/о н/о +21.0 +9.6 48 1025.1 1004.3
13 15.09 Ю 3 н/о н/о +21.8 +9.4 45 +23 +23 комфорт 1024.2 1003.5
14 15.09 Ю 2 н/о н/о +22.2 +10.4 47 +24 +24 комфорт 1023.4 1002.7
15 15.09 Ю 3 н/о н/о +21.8 +11.5 52 +24 +24 комфорт 1022.4 1001.7
16 15.09 Ю 3 н/о н/о +21.0 +12.7 59 +24 +24 комфорт 1021.8 1001.1
17 15.09 ЮВ 1 н/о н/о +19.2 +12.2 64 +21 +21 комфорт 1021.4 1000.6
18 15.09 В 1 н/о н/о +17.1 +12.0 72 +18 +18 1021.5 1000.5 +22.5
19 15.09 С 2 н/о н/о +14.1 +11.3 83 +14 +14 1021.7 1000.5
20 15.09 С 3 н/о н/о +12.8 +11.0 89 +11 +11 1021.6 1000.3
21 15.09 С 2 н/о н/о +12.1 +10.7 91 +11 +11 1021.3 1000.0
22 15.09 С 2 н/о н/о +11.5 +10.2 92 +10 +10 1021.4 1000.0
23 15.09 С 2 н/о н/о +10.9 +9.8 93 +9 +9 1021.3 999.9
00 16.09 С 1 н/о н/о +10.8 +9.9 94 +10 +10 1020.7 999.3
01 16.09 С 2 н/о н/о +10.2 +9.3 94 +9 +9 1020.5 999.0
02 16.09 С 1 н/о н/о +10.0 +9.2 95 +9 +9 1020.4 998.9
03 16.09 С 2 н/о н/о +9.6 +9.0 96 +8 +8 1020.1 998.6
04 16.09 н/о н/о +9.4 +8.8 96 1019.8 998.3
05 16.09 С 2 н/о н/о +9.9 +9.0 94 +8 +8 1019.7 998.2
06 16.09 С 2 н/о н/о +12.2 +11.1 93 +11 +11 1019.8 998.5 +9.2
07 16.09 н/о н/о +15.4 +11.8 79 1019.6 998.6
08 16.09 н/о н/о +18.3 +13.2 72 1019.3 998.5
09 16.09 н/о н/о +20.9 +14.3 66 1018.5 997.9
10 16.09 н/о н/о +23.8 +14.5 56 1017.9 997.5
11 16.09 З 3 н/о н/о +25.0 +12.6 46 +27 +27 жарко 1017.4 997.1
12 16.09 З 3 н/о н/о +25.1 +12.0 44 +27 +27 жарко 1016.8 996.5
13 16.09 З 5 н/о н/о +24.8 +8.8 36 +25 +25 комфорт 1016.4 996.0
14 16.09 З 3 н/о н/о +24.7 +9.5 38 +25 +25 комфорт 1016.0 995.6
15 16.09 СЗ 3 н/о н/о +23.8 +10.2 42 +25 +25 комфорт 1015.7 995.3
16 16.09 С 2 н/о н/о +22.1 +13.2 57 +25 +25 комфорт 1015.4 994.9
17 16.09 С 2 н/о н/о +20.3 +11.8 58 +23 +23 комфорт 1015.3 994.7
18 16.09 нст 1 н/о н/о +18.2 +12.2 68 +20 +20 1015.3 994.5 +25.6
19 16.09 СЗ 2 н/о н/о +16.7 +13.2 80 +17 +17 1015.4 994.5
20 16.09 ЮЗ 1 н/о н/о +16.0 +13.1 83 +17 +17 1015.6 994.7
21 16.09 С 2 н/о н/о +16.0 +13.1 83 +16 +16 1016.0 995.1
22 16.09 С 2 н/о н/о +15.9 +12.8 82 +16 +16 1015.3 994.4
23 16.09 н/о н/о +15.6 +12.9 84 1015.0 994.1
00 17.09 СЗ 1 н/о н/о +15.6 +13.3 86 +16 +16 1015.0 994.1
01 17.09 С 3 н/о н/о +15.6 +12.7 83 +15 +15 1014.7 993.8
02 17.09 С 3 н/о н/о +15.4 +12.9 85 +15 +15 1014.5 993.6
03 17.09 З 1 н/о н/о +15.0 +13.0 88 +15 +15 1014.5 993.5
04 17.09 СЗ 2 н/о н/о +15.5 +12.8 84 +15 +15 1014.5 993.6
05 17.09 СЗ 4 н/о н/о +16.3 +12.7 79 +16 +16 1014.8 993.9
06 17.09 СЗ 4 н/о н/о +15.9 +13.7 87 +15 +15 1014.9 994.0 +14.9
07 17.09 СЗ 4 н/о н/о +16.3 +13.2 82 +16 +16 1015.5 994.6
08 17.09 СЗ 4 н/о н/о +16.6 +13.5 82 +16 +16 1015.9 995.0
09 17.09 СЗ 4 н/о н/о +17.9 +13.2 74 +18 +18 1015.8 995.0
10 17.09 СЗ 5 н/о н/о +19.3 +11.1 59 +20 +20 1015.4 994.7
11 17.09 З 4 н/о н/о +18.6 +11.9 65 +19 +19 1015.2 994.5
12 17.09 З 4 н/о н/о +18.8 +11.1 61 +19 +19 1014.7 994.0
13 17.09 З 5 н/о н/о +19.8 +10.2 54 +21 +21 комфорт 1014.0 993.4
14 17.09 З 5 н/о н/о +19.8 +10.8 56 +21 +21 комфорт 1013.5 992.9
15 17.09 З 3 н/о н/о +19.4 +10.9 58 +21 +21 комфорт 1013.2 992.6
16 17.09 З 4 н/о н/о +18.3 +10.9 62 +18 +18 1012.8 992.1
17 17.09 З 4 н/о н/о +16.9 +11.2 69 +16 +16 1012.9 992.1
18 17.09 З 5 н/о н/о +16.5 +10.8 69 +16 +16 1013.9 993.0 +20.3
19 17.09 СЗ 4 н/о н/о +14.7 +9.5 71 +14 +14 1014.4 993.4
20 17.09 З 3 н/о н/о +14.5 +9.1 70 +14 +14 1014.9 993.9
21 17.09 З 4 н/о н/о +13.9 +9.2 73 +12 +12 1015.3 994.2
22 17.09 СЗ 4 н/о н/о +14.6 +7.2 61 +13 +13 1016.1 995.0
23 17.09 СЗ 4 н/о н/о +14.1 +6.5 60 +13 +13 1016.7 995.6
00 18.09 СЗ 4 н/о н/о +13.7 +4.8 55 +12 +12 1017.2 996.0

 

Местоположение метеостанции Ясловске Богунице (Словакия): широта 48.48 долгота 17.67 высота над уровнем моря 176 м.

В архиве по умолчанию представлена погода в Ясловске Богунице за последнюю неделю. Архивные данные за месяц целиком и за предыдущие месяцы, начиная с января 2011 года, Вы можете получить, выбрав интересующий диапазон дат из раскрывающегося списка и нажав кнопку "Ввод!".


*Определитесь, кто Вы:
робот инопланетянин человек

Внимание! Время в таблицах - всемирное. Для получения местного времени необходимо прибавить поправку, которая равна 1 ч.

Смотрите также архив погоды в соседних городах и на ближайших метеорологических станциях:

Погода в Пьештяни (Словакия) (20 км)
Погода в Малацки (Словакия) (39 км)
Погода в Нитре (Словакия) (41 км)
Погода в Малом Яровнику (Словакия) (46 км)
Погода в Братиславе (Словакия) (47 км)
Погода в Братислава-Колибе (Словакия) (53 км)
Погода в Моховце (Словакия) (62 км)
Погода в Зверндорф-Маршег (Австрия) (64 км)
Погода в Мошонмадьяроваре (Венгрия) (73 км)
Погода в Прьевидзе (Словакия) (76 км)

Пояснения к столбцам:

Ветер - указаны скорость ветра в м/с - средняя за 10 мин, порывы в срок и между сроками (в фигурных скобках) и направление, откуда дует ветер: С - северный, СВ - северо-восточный, В - восточный, ЮВ - юго-восточный, Ю - южный, ЮЗ - юго-западный, З - западный, СЗ - северо-западный.
Видимость - горизонтальная дальность видимости в метрах или километрах. При видимости от 1 до 10 км при отсутствии осадков обычно наблюдается дымка, при ухудшении видимости до 1 км и менее - туман. В сухую погоду видимость может ухудшаться дымом, пылью или мглою.
Явления - указаны атмосферные явления, наблюдавшиеся в срок или в последний час перед сроком; фигурными скобками обозначены явления, наблюдавшиеся между сроками (за 1-3 часа до срока); квадратными скобками обозначены град или гололедные отложения с указанием их диаметра в мм.
Облачность - указаны через наклонную черту общая и нижняя облачность в баллах и высота нижней границы облаков в метрах; квадратными скобками обозначены формы облаков: Ci - перистые, Cs - перисто-слоистые, Cc - перисто-кучевые, Ac - высококучевые, As - высокослоистые, Sc - слоисто-кучевые, Ns - слоисто-дождевые, Cu - кучевые, Cb - кучево-дождевые. Подробнее классификацию облаков см. в Атласе облаков (PDF).
T - Температура воздуха - температура, измеренная на высоте 2 м над землей.
Td - Температура точки росы - температура, при понижении до которой содержащийся в воздухе водяной пар достигнет насыщения.
f - Относительная влажность воздуха - влажноcть воздуха, измеренная на высоте 2 м над землей.
Te - Эффективная температура - температура, которую ощущает одетый по сезону человек в тени. Характеристика душности погоды. При расчете учитывается влияние влажности воздуха и скорости ветра на теплоощущения человека.
Tes - Эффективная температура на солнце - температура, которую ощущает человек, с поправкой на солнечный нагрев. Характеристика знойности погоды. Зависит от высоты солнца над горизонтом, облачности и скорости ветра. Ночью, в пасмурную погоду, а также при ветре 12 м/с и более поправка равна нулю.
P - Атмосферное давление - приведенное к уровню моря атмосферное давление.
Po - Атмосферное давление - измеренное на уровне метеостанции атмосферное давление.
Tmin - Минимальная температура - минимум температуры воздуха на высоте 2 м над землей.
Tmax - Максимальная температура - максимум температуры воздуха на высоте 2 м над землей.
R - Количество осадков - Количество выпавших осадков за период времени, мм. При наведении курсора мыши на число - период времени, за который выпало указанное количество осадков.
R24 - Количество осадков - Количество выпавших осадков за 24 часа, мм.
S - Снежный покров - Высота снежного покрова, см. При наведении курсора мыши на число - состояние снежного покрова и степень покрытия местности в баллах.